Location: 22
(39.7117°N, 89.5929°W)
Time: 06:21:38
(UTC-05:00)

Vanguard 1 Rocket - Pass Details

Date: 15 February 2023
Orbit: 652 x 4223 km, 34.3° (Epoch: 26 March)

Event Time Altitude Azimuth Distance (km) Brightness Sun altitude
Rises 11:42:43 0° 265° (W) 3,719 10.5 37.2°
Reaches altitude 10° 11:44:49 10° 262° (W) 3,011 10.2 37.3°
Maximum altitude 11:52:12 64° 182° (S) 1,831 10.3 37.5°
Drops below altitude 10° 12:06:55 10° 106° (ESE) 5,691 11.7 37.7°
Sets 12:12:36 0° 104° (ESE) 7,256 12.1 37.7°
